sat.trackr.live / text

‹ back to catalog

ANDURIL-216

NORAD 69879 · 2026-156L

PAYLOAD ACTIVE UNKNOWN

§ Identity

Operator
Country
US
Launch date
2026-07-07
Launch site
AFWTR
Launch vehicle
Mass (kg)
RCS (m²)

External: N2YO · Heavens-Above · Gunter

§ Orbital elements

Epoch: 2026-09-20T03:24:57.904704Z

Period
96.54 min
Inclination
97.7465°
Eccentricity
0.0004020
Mean motion
14.91636730 rev/d
Perigee alt
590.0 km
Apogee alt
595.6 km
Semi-major
6,971.0 km
B*
1.1227e-4
RAAN
162.3301°
Arg perigee
257.7923°
Mean anomaly
102.2845°
Rev number
1,115

§ Raw data

ANDURIL-2161 69879U 26156L   26263.14233686  .00001072  00000+0  11227-3 0  99962 69879  97.7465 162.3301 0004020 257.7923 102.2845 14.91636730 11156

JSON: /api/v1/satellites/69879 · /tle

For live sub-satellite position, see the globe view (requires WebGL).

§ Visibility from observer

Set your observer location to see the next 7 days of passes ≥ 10°. The values pass through the URL so the page stays shareable.

No JS? Fill the form by hand. The geolocation button needs JavaScript.